Prox-1
1 44339U 19036A   25040.65764129  .00017452  00000-0  24470-2 0  9991
2 44339  23.9976 127.3013 0008357 140.8403 219.2699 14.75868266300342
SONATE
1 44400U 19038Q   25040.51758795  .00062004  00000-0  82235-3 0  9996
2 44400  97.7096  54.9451 0008391 348.2086  11.8971 15.58020377310708
Taurus 1
1 44530U 19059C   25040.82320216  .00010608  00000-0  20861-2 0  9999
2 44530  98.5901 174.8960 0009269  44.6949 315.4997 14.62771903286416
Duchifat 3
1 44854U 19089C   25040.31663099  .00036676  00000-0  11004-2 0  9996
2 44854  36.9496  32.6470 0010536 265.8093  94.1456 15.33505682284465
TO-108
1 44881U 19093C   25040.78776046  .00001989  00000-0  23852-3 0  9993
2 44881  97.8046 118.9223 0012634 264.3717  95.6057 14.85111549278292
FloripaSat 1
1 44885U 19093G   25040.80270112  .00009142  00000-0  81796-3 0  9993
2 44885  97.8237 128.3399 0010075 244.1992 115.8190 14.96045777278828
RS-44
1 44909U 19096E   25040.23409167  .00000007  00000-0 -11813-4 0  9990
2 44909  82.5235 307.2586 0216680 216.7740 141.8331 12.79738179239294
UPMSat 2
1 46276U 20061E   25040.18065442  .00044874  00000-0  73823-3 0  9998
2 46276  97.2642 111.9383 0000520  39.8950 320.2341 15.52234484246694
SALSAT
1 46495U 20068K   25040.38972205  .00010440  00000-0  49095-3 0  9990
2 46495  97.8469  13.2141 0011019 209.4808 150.5805 15.19726710240254
CubeSX-Sirius-HSE
1 47951U 21022V   25040.80368466  .00076862  00000-0  12883-2 0  9998
2 47951  97.4351 307.9201 0009652  30.8376 329.3442 15.51523701215058
CubeSX-HSE
1 47952U 21022W   25040.78540877  .00080788  00000-0  13304-2 0  9995
2 47952  97.4355 308.0756 0009268  26.7062 333.4666 15.52008070215062
KSU-Cubesat
1 47954U 21022Y   25040.72837518  .00203227  00000-0  16463-2 0  9996
2 47954  97.4324 311.9294 0006933  47.0565 313.1277 15.70131905215023
GRBAlpha
1 47959U 21022AD  25040.81114691  .00077741  00000-0  12864-2 0  9992
2 47959  97.4342 308.2643 0009602  29.6066 330.5728 15.51881485213894
Orbicraft-Zorkiy
1 47960U 21022AE  25040.84332930  .00141908  00000-0  16081-2 0  9997
2 47960  97.4338 311.2892 0007714  34.9290 325.2473 15.61893218214753
TUBIN
1 48900U 21059X   25040.77378596  .00038138  00000-0  74509-3 0  9992
2 48900  97.6647 201.5334 0005073 320.9479  39.1404 15.47360254201437
LEDSAT
1 49069U 21073D   25040.78390315  .00045770  00000-0  10027-2 0  9993
2 49069  97.4055 118.8048 0013141 154.7071 205.4823 15.43877692192856
CUTE
1 49263U 21088D   25040.67029276  .00020596  00000-0  50656-3 0  9990
2 49263  97.4663 113.8814 0008566 321.9678  38.0962 15.40621213185926
TeikyoSat 4
1 49396U 21102B   25040.72089557  .00004021  00000-0  27409-3 0  9993
2 49396  97.4290  83.4253 0012759 177.7977 182.3309 15.06731241178493
Z-Sat
1 49399U 21102E   25040.83199176  .00006608  00000-0  37972-3 0  9996
2 49399  97.3997  85.9512 0019419 154.6939 205.5247 15.12661681178863
KOSEN 1
1 49402U 21102H   25040.65480378  .00009959  00000-0  49661-3 0  9998
2 49402  97.3913  88.3626 0017860 134.6981 225.5711 15.17590330179082
HO-113
1 50466U 21131B   25040.81866655  .00001087  00000-0  35517-3 0  9995
2 50466  98.5140 130.7848 0005082 129.1074 231.0567 14.40522325164205
IRIS-A
1 51044U 22002BN  25040.13845246  .00070656  00000-0  97957-3 0  9998
2 51044  97.3469 114.9556 0003811 258.3840 101.6987 15.56825802170932
Foresail-1
1 52766U 22057AL  25040.36029537  .00061638  00000-0  86579-3 0  9990
2 52766  97.5971 181.5176 0006171 348.6160  11.4953 15.56494638151009
SNUGLITE 2
1 52899U 22065F   25040.66119041  .00002503  00000-0  50175-3 0  9998
2 52899  98.1468 183.9856 0008433 125.7642 234.4345 14.62590267138959
IO-117
1 53106U 22080B   25034.56446200 -.00000003  00000-0  00000-0 0  9992
2 53106  70.1417 112.1355 0008120  52.7419 307.3980  6.42557586 60132
FO-118
1 54684U 22167C   25040.78878932  .00345935  00000-0  17491-2 0  9991
2 54684  97.6081 203.7780 0007579 322.3099  37.7637 15.80622486121035
SO-120
1 56992U 23084BU  25040.61111534  .02394221  76174-2  22962-2 0  9994
2 56992  97.5127 176.1662 0012059 296.8662  63.1390 16.13567797 92925
UmKA 1 (RS40S)
1 57172U 23091G   25040.80782622  .00008490  00000-0  48290-3 0  9990
2 57172  97.5785  96.8829 0015867  32.7995 327.4217 15.13007703 89357
CubeBel-2 (EU11S)
1 57175U 23091K   25040.83865565  .00013905  00000-0  73075-3 0  9990
2 57175  97.5783  97.4446 0013922  42.0268 318.2030 15.15718685 89392
VERONIKA
1 58261U 23174F   25040.76948345  .00060725  00000-0  13324-2 0  9991
2 58261  97.4303 122.3416 0007428 119.2909 240.9082 15.43823764 70051
KAFASAT
1 58317U 23174BP  25040.77988922  .00173504  00000-0  19545-2 0  9990
2 58317  97.4189 125.4803 0002803  71.4464 288.7098 15.61971105 70281
ENSO
1 58470U 23185J   25040.83897407  .00043358  00000-0  10391-2 0  9999
2 58470  97.3923 113.3492 0009108 150.3845 209.7919 15.41246594 66501
EIRSAT-1
1 58472U 23185L   25040.80604592  .00055481  00000-0  11691-2 0  9993
2 58472  97.3918 113.9628 0008070 151.3889 208.7804 15.45039017 66540
SONATE-2
1 59112U 24043Q   25040.32402858  .00020323  00000-0  70897-3 0  9998
2 59112  97.4963 169.7421 0011998 179.2235 180.9026 15.29580802 51917
MO-122
1 60209U 24125G   25040.09958648  .00022222  00000-0  76529-3 0  9993
2 60209  97.2949 253.4402 0020530 206.1682 153.8523 15.29842849 33492
GRBBeta
1 60237U 24128C   25040.62410322  .00006001  00000-0  47838-3 0  9996
2 60237  61.9930 137.2750 0039718  29.4629 330.8687 15.00782672 32180
Curium One
1 60242U 24128H   25040.74806712  .00009649  00000-0  73433-3 0  9998
2 60242  61.9834 136.5266 0040006  23.7662 336.5265 15.02018844 32213
ROBUSTA-3A
1 60243U 24128J   25040.58509133  .00009889  00000-0  76066-3 0  9999
2 60243  61.9899 137.5617 0038143  21.5196 338.7487 15.01651096 32180
CatSat
1 60246U 24125J   25040.58311064  .00013798  00000-0  50958-3 0  9999
2 60246  97.2737 254.2804 0046161 159.0725 201.2417 15.26833087 31652
HYPERVIEW-1G (RS66S)
1 61772U 24199AP  25040.77583083  .00026894  00000-0  96895-3 0  9999
2 61772  97.3742 270.3058 0014091 261.4558  98.5085 15.28439839 58615
AO-123
1 61781U 24199AY  25040.80466662  .00011431  00000-0  45113-3 0  9994
2 61781  97.3748 270.1253 0015126 262.1461  97.8060 15.25595446 58605
POEM 4 (BGS ARPIT)
1 62461U 24253C   25040.76740687  .00144486  00000-0  72320-3 0  9995
2 62461  55.2198  59.9027 0012417  38.9432 321.2510 15.80824083  6466
